Terug naar catalogus

STARLINK-36723

ActiefCommunicatieVLEO
NORAD 67915·PAYLOAD·🇺🇸 United States

Gelanceerd Feb 22, 2026 vanaf Vandenberg Space Force Base

Loading…

Volgende Passages (komende 24 uur)

TLE

VersSource: CelesTrak SupGP

Epoch: Sep 14, 2026, 20:57 UTC

1 67915C 26036M   26257.87340278  .00120410  00000+0  43638-2 0  2576
2 67915  43.0031 256.7261 0001456 267.4444 202.0258 15.27500231    13

Volg STARLINK-36723 in realtime met AllMySat

Download on the App Store